La Palma > ESTACION METEOROLÓGICA Puntallana

DATOS ACTUALES Online

Ultima actulizacion 1 minutos

18.5 ºC

Temperatura

68

Humedad (%)

1000.6

Presión (mb)

0

Precipitación (mm)

3.5 ESE

Viento (Km/h)

DATOS DIARIOS

Temperatura últimas 24 horas (ºC)

Humedad últimas 24 horas (%)

Presión atmosférica últimas 24 horas (mb)

Precipitaciones últimas 23 horas (mm)

Viento últimas 24 horas (Km/h)

Hora Temperatura (°C) ºC Precipitación (mm) mm Presión (mb) mb Humedad (%) % Viento (Km/h) km/h
28 - 23:00 18.5 0 1002 65 9.7 NW
29 - 00:00 19 0 1001 65 8.7 WSW
29 - 01:00 18.6 0 1001 69 1.4 E
29 - 02:00 18.4 0 1001 72 5.5 SW
29 - 03:00 18.6 0 1000 72 1.8 ENE
29 - 04:00 18.2 0 1000 70 6.1 SW
29 - 05:00 17.9 0 1000 68 5.5 WSW
29 - 06:00 18.3 0 1000 67 4.7 WSW
29 - 07:00 18.5 0 1001 64 5.8 NW
29 - 08:00 18.9 0 1001 65 2.1 NNW
29 - 09:00 19.6 0 1001 67 0 NNE
29 - 10:00 20.4 0 1001 65 5.5 NNE
29 - 11:00 20.6 0 1001 67 4.7 NNE
29 - 12:00 20.7 0 1001 65 0.6 NE
29 - 13:00 20.8 0 1001 67 2.6 NNE
29 - 14:00 20.1 0 1000 68 3.2 NE
29 - 15:00 20.6 0 1001 67 4.7 NNE
29 - 16:00 20.7 0 1000 65 3.5 N
29 - 17:00 20.8 0 1000 65 2.1 N
29 - 18:00 21.2 0 1000 64 0.3 NNE
29 - 19:00 20.3 0 1000 69 1.1 WNW
29 - 20:00 19.5 0 1000 70 8.7 ENE
29 - 21:00 18.8 0 1001 74 3.2 N
29 - 22:00 19 0 1001 66 1.8 ENE
29 - 23:00 18.5 0 1001 68 3.5 ESE
Apalmet utiliza cookies propias y de terceros para mejorar la usabilidad y la experiencia web. Política de cookies.